OneWeb SL0161

operational
NORAD ID: 48053 Int'l Des: 2021-025 Owner: ONEWEBN Country: UK Constellation: oneweb
LEOCIRCULARPOLARONEWEB_TYPE

Über OneWeb SL0161

Beschreibung wird geladen...

Live-Position

3D-Globus wird geladen...

Nächste Überflüge

Höhenverlauf

Altitude vs Time

uPlot chart will show altitude changes over time

Zweizeiliger Elementsatz

1 48053U 21025M 25305.39793978 .00000323 00000-0 85065-3 0 9995
2 48053 87.9029 5.4983 0001916 94.1477 265.9871 13.13470330223601
Epoch: 1. Nov. 2025 • Age: 15 hours

Aktueller Status

Höhe 1221.5 km
Geschwindigkeit 7.25 km/s
Subsatellitenpunkt 76.57°N, 35.87°W
Startdatum 25. März 2021
Alter 4.6 years
Typ internet

Technische Details

Klassifizierung Payload
Masse 148.00 kg
Trockenmasse 140.00 kg
Gesamtmasse 148.00 kg
Länge 1.30 m
Durchmesser 1.00 m
Spannweite 5.00 m
Form Trapezoid+2 pan
Hersteller ONEWUS
Bus-Typ ARROW
Phasenstatus In Orbit
Besitzer/Staat ONEWEBN/UK

Große Konstellationen

Loading constellations...